Temperature
24 23 23 22 22 22 21 21 21 21 21 21 20 19 19 18 18 17 17 17 16 16 15 15 14 14 13 13 12 12 12 11 11 11 11 11 11 11 11 11 11 11 12 12
24 24 23 23 23 22 22 21 21 21 21 21 20 19 19 19 18 18 17 17 16 16 15 15 15 14 13 13 13 12 12 11 11 11 11 11 11 11 11 11 11 11 11 11
24 24 23 23 24 23 23 22 22 21 22 21 20 19 19 19 18 18 17 17 16 16 15 15 15 14 14 13 13 12 12 11 11 11 11 11 11 11 10 10 11 10 11 11
24 24 23 24 25 24 23 23 23 22 22 21 20 19 19 18 18 18 17 17 16 16 16 15 15 14 14 14 13 12 12 11 11 11 11 10 10 10 10 10 10 10 10 10
24 24 25 23 24 23 22 22 23 22 22 21 20 19 19 19 18 18 17 16 16 16 16 15 15 15 14 14 13 12 12 11 11 11 11 10 10 10 10 10 10 10 10 10
23 23 24 24 24 23 23 22 24 23 22 21 20 19 19 19 18 17 17 16 16 16 16 15 15 14 14 14 13 12 11 11 11 11 11 10 10 9 9 10 10 10 9 10
22 23 25 23 23 23 21 23 24 23 22 21 20 20 19 19 18 17 16 16 16 16 15 15 15 14 14 14 13 12 11 11 11 11 10 10 10 10 10 10 10 10 9 9
24 23 23 22 22 23 24 24 23 23 22 21 21 20 19 18 18 17 17 16 16 16 15 15 15 14 14 13 13 12 11 11 11 11 11 10 10 10 10 10 10 10 10 10
25 24 23 22 23 24 24 24 23 23 22 21 21 20 19 18 18 17 17 16 16 16 15 15 15 14 14 13 13 12 12 12 11 11 11 11 10 10 10 10 10 10 10 10
25 25 26 24 23 23 23 23 23 23 22 21 20 20 19 18 18 17 17 17 16 16 16 16 15 14 14 13 13 12 12 12 12 11 11 11 11 10 10 10 10 10 10 10
25 25 26 25 24 23 23 22 22 22 22 21 20 20 19 19 18 18 17 17 16 16 16 16 15 15 14 14 13 13 13 13 12 12 11 11 11 10 10 10 10 10 10 10
24 26 26 25 24 23 22 22 22 21 21 21 20 20 19 19 18 18 18 17 17 16 16 16 16 15 15 14 13 13 14 13 13 12 12 11 11 11 11 10 10 10 10 10
25 25 25 24 24 23 22 22 21 21 21 20 20 19 19 19 18 18 18 17 17 17 16 16 16 15 15 14 14 14 14 13 13 12 12 12 11 11 11 11 11 10 10 11
24 23 23 23 23 23 22 22 21 21 20 20 20 19 19 19 18 18 18 17 17 17 16 16 16 15 15 14 14 14 14 13 13 13 12 12 12 12 11 11 11 11 11 11
21 21 22 22 22 22 22 21 21 21 20 20 20 19 19 19 18 18 18 17 17 17 17 16 16 16 15 15 14 14 14 13 13 13 12 12 12 12 12 12 11 11 11 11
17 19 20 20 20 21 21 21 21 21 20 20 20 19 19 19 18 18 18 17 17 17 17 16 16 16 15 15 15 15 14 14 13 13 13 13 12 12 12 12 12 12 11 11
14 14 15 16 17 18 19 20 20 20 20 20 20 20 19 19 18 18 18 17 17 17 17 17 16 16 16 15 15 15 14 14 14 13 13 13 13 13 13 13 12 12 12 12
12 12 13 13 14 16 17 18 20 20 20 20 20 20 19 19 18 18 18 17 17 17 17 17 16 16 16 16 15 15 14 14 14 14 13 13 13 13 13 13 13 12 12 12
11 11 12 12 13 14 15 16 17 19 20 20 20 20 19 19 19 18 18 17 17 17 17 17 16 16 16 16 15 15 14 14 14 14 13 13 13 13 13 13 13 13 12 12
10 10 10 11 12 12 13 15 16 17 18 19 20 20 20 19 19 18 18 18 17 17 17 17 16 16 16 16 15 15 15 14 14 14 13 13 13 13 13 13 13 13 13 12
9 9 10 10 10 11 12 13 15 16 17 18 19 19 19 19 19 18 18 18 17 17 17 17 16 16 16 16 15 15 15 14 14 14 13 13 13 13 13 13 13 13 13 13
9 9 9 9 9 10 11 12 13 14 15 17 18 18 19 19 18 18 18 18 17 17 17 17 16 16 16 15 15 15 15 14 14 14 13 13 13 13 13 13 13 13 13 13
8 8 8 8 8 9 9 10 11 12 13 15 16 17 17 18 18 18 17 17 17 17 17 16 16 16 15 15 15 15 15 14 14 14 13 13 13 13 13 13 13 13 13 13
7 7 7 7 7 7 8 8 9 10 11 13 14 15 15 16 17 17 17 17 17 17 16 16 16 15 15 15 15 15 14 14 14 14 13 13 13 13 13 13 13 13 13 13
6 6 6 6 6 6 6 6 7 8 9 10 11 12 13 14 15 15 16 16 16 16 16 16 15 15 15 15 15 14 14 14 14 14 13 13 13 13 13 13 13 13 13 12
5 5 5 5 5 5 5 5 5 5 6 7 8 10 10 11 12 13 14 15 15 15 15 15 15 15 14 14 14 14 14 14 14 13 13 13 13 13 13 13 13 13 13 12
5 5 5 4 4 4 4 4 4 4 5 5 6 7 8 9 10 11 12 13 13 14 14 14 14 14 14 14 14 14 14 14 14 13 13 13 13 13 13 13 13 13 13 12
Wind_Speed
2 1 2 4 4 5 6 7 6 5 3 0 4 3 0 1 2 4 5 5 5 4 4 4 4 4 5 5 5 6 7 7 8 8 8 8 8 9 9 9 10 9 9 9
6 6 5 9 9 8 7 7 7 6 4 4 5 4 3 1 2 3 4 5 5 5 5 5 4 5 5 5 5 6 7 7 7 7 8 8 8 8 8 8 8 8 8 8
5 6 6 8 7 9 8 6 6 6 2 7 5 4 2 1 1 2 3 4 5 4 4 3 4 4 4 4 5 6 6 6 7 7 7 8 9 8 8 8 7 7 7 7
7 6 5 4 4 1 5 8 7 6 2 5 4 3 3 3 2 2 3 4 4 4 3 3 4 4 3 4 6 6 6 6 6 7 7 7 7 7 7 6 6 6 7 7
4 6 5 7 4 3 4 7 9 9 7 6 5 5 7 7 3 1 3 3 3 3 3 4 5 4 4 5 6 6 6 6 6 7 7 7 7 6 5 5 5 5 6 7
5 5 4 6 8 4 2 5 8 10 9 9 8 6 4 8 6 3 2 2 3 3 3 4 4 3 3 5 7 7 6 6 6 5 6 7 7 6 5 4 5 4 5 6
6 5 2 8 8 5 2 4 5 7 9 10 10 4 6 8 7 4 3 2 2 3 2 3 3 3 3 6 7 6 5 4 5 5 5 5 5 5 5 5 5 5 5 5
4 4 0 9 7 5 4 2 1 5 8 10 8 6 7 7 6 5 4 4 1 2 1 1 1 2 4 6 5 4 3 3 3 4 5 5 4 5 5 6 6 6 6 5
3 2 5 8 8 6 5 5 2 5 6 9 8 8 8 7 6 5 4 4 3 1 1 1 2 2 3 5 4 2 2 1 1 3 3 4 5 6 6 6 6 5 6 5
5 5 4 10 11 8 6 6 4 4 7 8 9 8 8 7 6 6 5 4 4 4 4 2 3 2 2 4 3 2 2 1 1 3 4 4 4 4 5 6 6 6 6 6
6 8 7 5 8 9 8 7 7 5 7 9 9 9 9 8 7 6 6 5 4 4 1 1 3 4 3 3 2 3 4 3 2 3 3 3 3 3 4 4 3 3 4 5
5 6 5 5 1 6 8 9 9 8 8 9 9 9 9 8 7 7 7 6 6 5 3 4 4 4 5 4 3 4 1 2 2 2 2 2 3 3 3 3 3 4 4 4
6 8 6 6 5 4 7 9 10 9 9 9 10 10 9 8 8 7 7 7 7 7 6 6 4 4 5 6 4 5 3 2 2 1 1 2 2 3 3 2 1 1 2 3
9 8 8 8 7 6 7 8 9 10 10 10 10 10 9 9 8 9 9 8 7 7 7 6 5 5 5 6 5 5 3 2 2 2 2 2 1 1 2 3 3 3 2 2
16 13 10 9 9 8 6 6 8 10 11 11 11 11 11 10 10 9 9 8 8 8 7 7 6 6 5 6 5 6 4 3 4 3 2 3 2 2 2 2 3 3 4 3
18 16 16 14 12 11 9 8 10 10 11 12 12 12 12 11 10 9 9 9 9 9 8 8 8 7 7 6 5 4 2 3 3 2 3 4 4 4 3 3 3 3 4 4
18 18 18 18 17 16 13 11 11 11 11 12 12 12 12 12 11 11 10 10 10 9 9 8 8 8 8 8 7 5 5 6 8 4 4 4 4 4 4 4 3 3 4 5
14 14 15 17 17 17 17 16 14 12 12 11 11 12 14 14 14 13 11 10 10 10 9 9 8 8 8 8 7 5 5 5 6 6 6 5 4 4 4 3 4 4 5 5
15 16 17 17 17 17 17 17 16 15 12 11 12 13 14 14 13 13 12 13 13 12 11 10 11 9 9 10 8 5 4 5 5 6 6 6 5 4 4 4 4 5 6 7
15 16 17 18 18 18 17 17 17 16 14 11 11 12 13 13 13 13 13 13 12 10 10 10 11 9 9 10 11 6 6 6 6 5 5 5 5 6 6 6 5 5 5 6
16 17 18 18 19 19 19 19 17 16 14 12 11 11 11 11 12 12 12 12 10 11 12 14 11 9 9 9 12 8 7 7 6 6 5 5 6 6 6 6 5 6 5 5
16 16 17 18 19 19 19 19 18 18 16 13 11 9 9 9 11 11 12 10 8 13 11 9 8 11 12 11 8 8 7 7 6 6 6 5 5 5 5 5 5 5 5 6
15 15 16 17 18 18 19 19 20 19 17 15 12 9 8 7 7 8 9 8 8 13 11 9 12 15 16 11 8 8 8 8 7 6 6 6 5 5 5 6 5 5 5 5
14 15 15 16 16 16 17 19 19 18 19 17 14 12 9 6 5 6 6 8 12 13 10 12 17 18 17 10 8 8 8 8 8 7 7 6 6 6 5 5 5 5 5 6
13 13 14 15 14 12 14 17 18 18 18 16 18 17 12 8 6 5 4 5 9 12 9 11 17 18 14 9 9 9 8 8 8 8 7 6 6 5 5 4 5 5 5 5
11 10 10 11 11 10 10 11 12 13 14 14 15 15 14 12 10 7 5 3 4 8 7 6 9 12 11 9 9 9 8 8 8 8 8 7 6 6 6 6 6 5 5 5
11 9 8 8 8 8 9 9 10 11 12 13 15 14 14 14 13 12 10 7 2 2 4 4 7 9 9 9 9 9 8 7 7 8 8 7 7 6 7 8 6 6 5 5
Wind_Direction
51 8 299 286 270 252 261 290 312 1 352 74 124 126 158 268 333 3 16 17 24 28 28 7 34 38 27 27 31 39 39 31 20 21 20 21 23 25 28 26 30 27 29 26
246 210 250 263 253 241 250 263 276 287 278 129 123 148 223 271 15 0 20 21 15 27 37 6 35 45 32 33 39 46 46 36 23 24 20 20 22 23 26 27 25 26 27 26
299 164 258 265 236 223 225 232 245 262 259 135 166 195 226 300 321 342 27 26 18 20 37 359 46 51 42 41 46 47 45 43 33 28 26 25 22 21 23 25 20 19 22 23
288 268 277 93 83 162 234 242 232 238 174 165 190 183 208 231 266 336 35 30 21 7 6 18 55 45 48 73 65 50 37 41 41 33 23 21 24 25 22 18 14 16 19 19
295 310 287 133 136 158 232 262 229 216 202 182 181 203 223 196 179 63 45 27 20 350 345 35 51 36 22 61 75 58 37 36 43 38 27 18 18 21 17 10 11 20 20 22
299 299 329 103 115 126 239 271 206 192 188 180 186 229 211 156 148 145 100 44 1 330 8 32 38 30 11 61 71 61 42 36 40 44 38 25 15 9 8 11 10 25 31 34
263 278 324 114 127 148 248 17 102 173 179 180 198 212 114 131 140 143 135 121 308 316 43 35 15 357 42 64 69 67 54 40 36 36 52 46 11 360 9 12 15 26 36 44
233 259 229 140 159 207 271 54 177 187 183 183 192 159 134 143 147 160 165 161 226 310 42 85 34 351 75 84 86 86 76 57 57 51 36 38 24 9 16 15 18 27 29 35
308 348 125 184 210 238 285 294 245 185 182 181 186 175 165 167 170 176 188 169 176 238 276 211 126 46 66 108 114 119 105 89 92 100 89 46 28 23 19 18 18 21 23 27
290 282 235 204 217 238 247 263 268 198 182 183 188 183 177 181 181 181 195 180 178 215 232 197 124 129 112 124 155 178 176 190 137 83 76 75 46 32 39 25 17 15 17 17
267 276 265 209 206 223 231 235 241 218 195 188 190 191 186 190 193 188 186 179 190 223 224 202 178 168 148 154 203 221 203 181 144 115 99 94 94 50 52 74 60 28 9 11
260 330 351 0 119 213 227 226 227 219 206 194 192 197 195 196 192 190 190 189 191 191 201 242 211 170 157 163 230 265 237 119 113 136 144 151 149 135 61 84 103 74 52 40
303 324 326 324 320 265 241 233 225 219 212 203 199 200 202 199 189 188 196 202 198 188 195 226 221 192 168 169 215 265 268 166 149 146 158 200 190 174 169 175 171 13 22 50
356 337 310 309 304 282 254 242 231 223 217 210 205 202 204 205 199 194 199 204 204 198 195 209 217 209 180 170 198 242 255 158 157 173 218 248 242 215 163 166 176 193 213 228
352 341 329 328 320 310 285 256 239 230 221 216 209 206 205 208 208 201 198 200 203 205 203 207 210 207 184 179 206 229 228 191 180 190 207 236 234 216 212 186 169 158 154 182
347 353 353 342 325 312 294 267 252 243 232 222 215 211 209 208 209 206 199 197 205 210 208 208 208 199 181 183 207 230 220 177 176 203 228 228 222 218 213 204 187 172 161 160
1 354 347 339 331 322 309 288 265 254 245 232 222 214 211 209 210 211 206 201 206 212 209 208 203 191 179 183 200 212 209 189 189 213 241 241 228 221 211 202 197 176 146 140
358 348 341 334 329 323 316 308 293 268 251 243 227 217 215 214 214 212 209 206 207 211 214 212 196 184 180 184 203 218 218 191 185 204 221 230 231 226 219 209 199 174 155 161
0 354 347 341 335 327 320 313 305 294 272 248 235 225 219 218 216 212 209 211 212 213 209 206 201 191 185 189 198 207 229 232 207 205 209 211 215 233 233 223 216 200 174 166
358 355 351 346 342 335 327 320 312 303 292 269 246 233 224 219 214 213 214 217 214 205 195 194 192 194 198 191 186 199 215 228 227 218 212 206 204 217 225 220 213 206 192 181
354 353 352 349 345 340 336 329 322 312 302 289 264 246 235 223 213 213 217 223 213 193 191 193 192 189 196 190 183 196 208 218 218 218 219 212 210 218 227 224 212 203 201 197
347 348 348 347 345 343 340 337 334 327 319 305 287 266 250 234 222 220 220 215 203 190 186 186 188 188 190 185 183 195 204 214 215 212 217 218 214 218 225 229 222 209 202 199
339 340 341 343 342 341 342 344 341 338 332 323 312 295 271 252 233 225 229 212 196 191 189 188 188 190 189 185 186 193 202 210 213 211 211 214 216 219 224 231 227 217 207 202
332 333 333 335 337 342 344 343 340 340 339 337 332 327 314 291 268 245 231 209 202 193 193 192 188 190 187 194 197 200 204 205 206 209 211 209 210 215 220 223 223 219 214 212
323 325 328 331 334 338 338 339 341 344 346 346 343 340 335 324 311 297 266 223 197 186 193 192 188 187 191 200 202 206 208 205 200 197 203 206 206 209 216 221 220 221 219 217
312 313 318 321 325 329 333 337 339 341 344 346 342 339 340 338 333 331 319 284 200 191 193 184 186 192 200 205 207 209 208 204 198 194 191 192 200 202 208 220 235 230 225 223
303 304 307 313 322 328 328 329 333 336 342 345 338 338 341 345 347 345 340 337 332 201 205 197 190 197 204 207 210 211 209 203 191 184 187 192 199 209 212 214 215 219 223 224
Height
1536 1537 1538 1540 1541 1542 1544 1542 1544 1541 1542 1540 1542 1545 1547 1548 1547 1547 1546 1545 1544 1542 1540 1538 1536 1534 1532 1529 1526 1523 1520 1517 1514 1512 1509 1507 1504 1501 1499 1497 1495 1493 1492 1490
1535 1534 1536 1537 1535 1537 1539 1539 1540 1540 1540 1537 1541 1544 1546 1545 1546 1546 1545 1545 1544 1542 1540 1539 1537 1535 1533 1530 1528 1525 1522 1519 1517 1514 1511 1509 1506 1503 1501 1499 1497 1495 1493 1492
1533 1530 1534 1534 1526 1529 1533 1533 1536 1539 1536 1536 1540 1542 1544 1544 1545 1545 1544 1544 1543 1542 1540 1539 1537 1535 1533 1531 1529 1527 1524 1521 1519 1516 1513 1511 1508 1506 1503 1501 1499 1497 1495 1494
1535 1532 1541 1530 1521 1523 1527 1528 1529 1531 1533 1536 1538 1541 1542 1543 1544 1544 1544 1543 1543 1542 1540 1539 1537 1536 1534 1532 1530 1528 1526 1523 1521 1518 1515 1513 1510 1508 1505 1503 1501 1499 1497 1496
1535 1538 1527 1526 1522 1525 1529 1528 1524 1527 1530 1534 1537 1539 1540 1540 1542 1543 1543 1543 1542 1541 1540 1539 1537 1536 1535 1533 1531 1529 1527 1525 1522 1520 1517 1515 1512 1510 1508 1506 1504 1502 1500 1498
1538 1542 1536 1527 1522 1524 1529 1528 1518 1522 1527 1532 1535 1538 1536 1537 1540 1541 1542 1542 1541 1541 1540 1539 1538 1536 1535 1534 1531 1530 1528 1526 1524 1522 1519 1517 1514 1512 1510 1508 1506 1505 1502 1500
1543 1541 1524 1523 1524 1527 1535 1528 1519 1521 1525 1529 1532 1535 1535 1536 1538 1540 1541 1541 1541 1540 1539 1538 1537 1537 1535 1534 1532 1531 1529 1527 1526 1523 1521 1519 1516 1514 1513 1511 1509 1507 1505 1504
1532 1536 1533 1523 1524 1526 1524 1520 1521 1522 1524 1527 1530 1533 1534 1536 1537 1539 1539 1540 1540 1539 1539 1538 1537 1536 1535 1534 1533 1531 1530 1529 1527 1525 1523 1521 1519 1516 1515 1513 1511 1510 1508 1506
1523 1525 1520 1519 1520 1520 1520 1520 1519 1521 1523 1525 1528 1530 1532 1534 1536 1537 1538 1539 1539 1538 1538 1538 1537 1536 1535 1534 1533 1532 1531 1530 1528 1526 1525 1522 1520 1518 1516 1514 1513 1512 1510 1509
1520 1515 1514 1515 1516 1517 1518 1518 1518 1519 1521 1523 1526 1528 1530 1532 1534 1535 1536 1537 1537 1537 1537 1537 1536 1535 1535 1533 1533 1532 1531 1530 1529 1528 1526 1524 1522 1520 1518 1516 1515 1513 1512 1511
1518 1514 1511 1511 1512 1513 1515 1516 1517 1517 1519 1521 1523 1525 1527 1530 1532 1533 1534 1535 1535 1536 1536 1536 1535 1534 1534 1533 1532 1532 1531 1530 1530 1528 1527 1525 1524 1522 1520 1519 1517 1516 1514 1513
1516 1512 1511 1511 1510 1511 1512 1512 1513 1515 1516 1518 1520 1522 1524 1526 1528 1530 1531 1532 1533 1534 1534 1534 1534 1533 1533 1532 1532 1532 1532 1531 1530 1529 1527 1526 1525 1523 1522 1521 1519 1518 1517 1515
1511 1511 1511 1511 1511 1510 1509 1509 1510 1511 1513 1514 1516 1518 1521 1523 1525 1526 1528 1529 1530 1531 1531 1532 1532 1532 1531 1531 1530 1530 1530 1530 1529 1529 1528 1527 1526 1525 1523 1523 1521 1520 1519 1518
1510 1510 1509 1509 1509 1508 1507 1507 1508 1508 1510 1511 1513 1515 1517 1519 1521 1522 1524 1525 1527 1528 1529 1529 1530 1530 1530 1529 1529 1529 1529 1528 1528 1527 1527 1527 1526 1526 1524 1523 1522 1521 1520 1519
1509 1509 1509 1507 1506 1506 1505 1505 1505 1505 1506 1507 1509 1510 1512 1514 1516 1517 1519 1521 1523 1524 1525 1526 1526 1527 1527 1527 1526 1527 1527 1527 1526 1526 1526 1526 1526 1525 1524 1524 1523 1522 1521 1521
1510 1508 1506 1505 1504 1504 1503 1502 1502 1502 1502 1503 1504 1505 1507 1509 1511 1513 1515 1516 1518 1519 1520 1521 1522 1523 1523 1523 1524 1524 1524 1524 1524 1524 1524 1524 1524 1524 1524 1523 1523 1522 1521 1521
1512 1509 1507 1505 1503 1501 1500 1499 1498 1498 1498 1498 1499 1500 1502 1504 1505 1507 1509 1510 1512 1514 1515 1517 1518 1519 1519 1519 1520 1520 1521 1521 1521 1521 1521 1522 1522 1522 1522 1522 1522 1521 1521 1520
1516 1514 1511 1507 1503 1500 1496 1495 1493 1493 1492 1492 1493 1494 1495 1496 1497 1499 1502 1505 1506 1507 1509 1511 1513 1514 1514 1515 1516 1517 1517 1518 1518 1518 1518 1519 1519 1520 1520 1520 1520 1520 1519 1519
1515 1512 1509 1505 1502 1498 1494 1491 1488 1487 1486 1486 1486 1487 1487 1489 1491 1493 1496 1497 1498 1499 1502 1505 1507 1508 1509 1510 1511 1512 1513 1514 1514 1515 1515 1516 1516 1516 1517 1517 1518 1518 1517 1517
1514 1511 1507 1503 1500 1496 1491 1487 1484 1481 1480 1480 1479 1479 1480 1481 1483 1486 1488 1489 1489 1492 1495 1498 1500 1501 1503 1504 1505 1506 1508 1509 1510 1511 1511 1512 1512 1512 1513 1514 1514 1515 1515 1515
1513 1509 1505 1501 1497 1493 1489 1485 1480 1477 1475 1474 1473 1472 1473 1474 1476 1478 1479 1480 1482 1486 1488 1490 1492 1494 1496 1498 1499 1500 1502 1503 1504 1505 1506 1507 1508 1508 1509 1510 1511 1511 1512 1512
1511 1508 1504 1500 1495 1491 1487 1482 1478 1474 1471 1468 1467 1467 1467 1467 1468 1470 1470 1472 1476 1478 1480 1482 1484 1487 1489 1491 1492 1494 1495 1497 1498 1500 1501 1502 1503 1504 1504 1505 1506 1507 1507 1508
1510 1507 1503 1499 1495 1490 1485 1481 1476 1471 1467 1465 1463 1461 1461 1461 1462 1463 1463 1465 1468 1471 1472 1474 1476 1479 1482 1484 1485 1487 1488 1490 1491 1493 1494 1496 1497 1498 1499 1500 1501 1502 1503 1503
1508 1505 1502 1498 1494 1489 1484 1479 1475 1470 1465 1461 1459 1457 1456 1455 1455 1456 1457 1459 1460 1462 1464 1466 1469 1472 1474 1476 1478 1479 1481 1483 1484 1486 1488 1489 1491 1492 1493 1494 1495 1496 1497 1498
1505 1502 1499 1496 1492 1488 1484 1479 1474 1469 1464 1459 1455 1453 1451 1451 1450 1450 1451 1452 1453 1455 1456 1459 1461 1464 1466 1468 1470 1472 1474 1476 1478 1480 1481 1483 1484 1486 1487 1488 1489 1491 1492 1493
1502 1499 1496 1493 1490 1487 1483 1479 1475 1470 1465 1459 1454 1451 1449 1447 1445 1444 1444 1445 1446 1447 1449 1451 1454 1456 1458 1460 1463 1465 1467 1469 1471 1473 1474 1476 1478 1479 1480 1482 1483 1484 1485 1486
1498 1495 1492 1490 1487 1484 1480 1477 1473 1470 1466 1461 1456 1452 1448 1445 1442 1440 1440 1440 1441 1442 1443 1445 1446 1448 1450 1453 1455 1457 1460 1462 1464 1466 1467 1469 1471 1472 1474 1475 1476 1478 1479 1480